Year,Month,Day,Hour,Minute,Value (Times are PST for temperature in C)
2013,07,14,00,00,13.90
2013,07,14,00,01,13.90
2013,07,14,00,02,13.90
2013,07,14,00,03,13.90
2013,07,14,00,04,13.80
2013,07,14,00,05,13.80
2013,07,14,00,06,13.80
2013,07,14,00,07,13.80
2013,07,14,00,08,13.80
2013,07,14,00,09,13.80
2013,07,14,00,10,13.80
2013,07,14,00,11,13.80
2013,07,14,00,12,13.80
2013,07,14,00,13,13.80
2013,07,14,00,14,13.80
2013,07,14,00,15,13.80
2013,07,14,00,16,13.80
2013,07,14,00,17,13.80
2013,07,14,00,18,13.80
2013,07,14,00,19,13.80
2013,07,14,00,20,13.90
2013,07,14,00,21,14.00
2013,07,14,00,22,14.00
2013,07,14,00,23,14.00
2013,07,14,00,24,14.10
2013,07,14,00,25,14.20
2013,07,14,00,26,14.20
2013,07,14,00,27,14.30
2013,07,14,00,28,14.30
2013,07,14,00,29,14.40
2013,07,14,00,30,14.50
2013,07,14,00,31,14.60
2013,07,14,00,32,14.60
2013,07,14,00,33,14.70
2013,07,14,00,34,14.70
2013,07,14,00,35,14.70
2013,07,14,00,36,14.70
2013,07,14,00,37,14.70
2013,07,14,00,38,14.70
2013,07,14,00,39,14.70
2013,07,14,00,40,14.60
2013,07,14,00,41,14.60
2013,07,14,00,42,14.60
2013,07,14,00,43,14.60
2013,07,14,00,44,14.60
2013,07,14,00,45,14.50
2013,07,14,00,46,14.50
2013,07,14,00,47,14.50
2013,07,14,00,48,14.40
2013,07,14,00,49,14.40
2013,07,14,00,50,14.40
2013,07,14,00,51,14.40
2013,07,14,00,52,14.30
2013,07,14,00,53,14.30
2013,07,14,00,54,14.30
2013,07,14,00,55,14.30
2013,07,14,00,56,14.30
2013,07,14,00,57,14.30
2013,07,14,00,58,14.30
2013,07,14,00,59,14.30
2013,07,14,01,00,14.30
2013,07,14,01,01,14.30
2013,07,14,01,02,14.30
2013,07,14,01,03,14.20
2013,07,14,01,04,14.20
2013,07,14,01,05,14.20
2013,07,14,01,06,14.20
2013,07,14,01,07,14.20
2013,07,14,01,08,14.20
2013,07,14,01,09,14.20
2013,07,14,01,10,14.20
2013,07,14,01,11,14.20
2013,07,14,01,12,14.20
2013,07,14,01,13,14.30
2013,07,14,01,14,14.30
2013,07,14,01,15,14.30
2013,07,14,01,16,14.30
2013,07,14,01,17,14.30
2013,07,14,01,18,14.30
2013,07,14,01,19,14.40
2013,07,14,01,20,14.40
2013,07,14,01,21,14.40
2013,07,14,01,22,14.50
2013,07,14,01,23,14.50
2013,07,14,01,24,14.60
2013,07,14,01,25,14.60
2013,07,14,01,26,14.60
2013,07,14,01,27,14.60
2013,07,14,01,28,14.60
2013,07,14,01,29,14.50
2013,07,14,01,30,14.50
2013,07,14,01,31,14.50
2013,07,14,01,32,14.40
2013,07,14,01,33,14.40
2013,07,14,01,34,14.40
2013,07,14,01,35,14.40
2013,07,14,01,36,14.40
2013,07,14,01,37,14.30
2013,07,14,01,38,14.40
2013,07,14,01,39,14.40
2013,07,14,01,40,14.50
2013,07,14,01,41,14.50
2013,07,14,01,42,14.50
2013,07,14,01,43,14.60
2013,07,14,01,44,14.60
2013,07,14,01,45,14.60
2013,07,14,01,46,14.60
2013,07,14,01,47,14.70
2013,07,14,01,48,14.70
2013,07,14,01,49,14.70
2013,07,14,01,50,14.70
2013,07,14,01,51,14.70
2013,07,14,01,52,14.70
2013,07,14,01,53,14.70
2013,07,14,01,54,14.70
2013,07,14,01,55,14.70
2013,07,14,01,56,14.70
2013,07,14,01,57,14.70
2013,07,14,01,58,14.70
2013,07,14,01,59,14.70
2013,07,14,02,00,14.70
2013,07,14,02,01,14.70
2013,07,14,02,02,14.60
2013,07,14,02,03,14.60
2013,07,14,02,04,14.60
2013,07,14,02,05,14.50
2013,07,14,02,06,14.50
2013,07,14,02,07,14.50
2013,07,14,02,08,14.40
2013,07,14,02,09,14.40
2013,07,14,02,10,14.30
2013,07,14,02,11,14.30
2013,07,14,02,12,14.20
2013,07,14,02,13,14.20
2013,07,14,02,14,14.20
2013,07,14,02,15,14.10
2013,07,14,02,16,14.10
2013,07,14,02,17,14.10
2013,07,14,02,18,14.00
2013,07,14,02,19,14.00
2013,07,14,02,20,13.90
2013,07,14,02,21,13.90
2013,07,14,02,22,13.90
2013,07,14,02,23,13.80
2013,07,14,02,24,13.80
2013,07,14,02,25,13.80
2013,07,14,02,26,13.80
2013,07,14,02,27,13.80
2013,07,14,02,28,13.80
2013,07,14,02,29,13.80
2013,07,14,02,30,13.80
2013,07,14,02,31,13.90
2013,07,14,02,32,13.90
2013,07,14,02,33,13.90
2013,07,14,02,34,13.90
2013,07,14,02,35,13.90
2013,07,14,02,36,13.90
2013,07,14,02,37,14.00
2013,07,14,02,38,14.00
2013,07,14,02,39,14.00
2013,07,14,02,40,14.00
2013,07,14,02,41,14.00
2013,07,14,02,42,14.10
2013,07,14,02,43,14.10
2013,07,14,02,44,14.10
2013,07,14,02,45,14.10
2013,07,14,02,46,14.20
2013,07,14,02,47,14.20
2013,07,14,02,48,14.20
2013,07,14,02,49,14.20
2013,07,14,02,50,14.20
2013,07,14,02,51,14.10
2013,07,14,02,52,14.10
2013,07,14,02,53,14.10
2013,07,14,02,54,14.00
2013,07,14,02,55,14.00
2013,07,14,02,56,13.90
2013,07,14,02,57,13.90
2013,07,14,02,58,13.80
2013,07,14,02,59,13.80
2013,07,14,03,00,13.70
2013,07,14,03,01,13.70
2013,07,14,03,02,13.60
2013,07,14,03,06,13.40
2013,07,14,03,07,13.40
2013,07,14,03,08,13.30
2013,07,14,03,09,13.30
2013,07,14,03,10,13.20
2013,07,14,03,11,13.20
2013,07,14,03,12,13.20
2013,07,14,03,13,13.10
2013,07,14,03,14,13.10
2013,07,14,03,15,13.10
2013,07,14,03,16,13.00
2013,07,14,03,17,13.00
2013,07,14,03,18,13.00
2013,07,14,03,19,12.90
2013,07,14,03,20,12.90
2013,07,14,03,21,12.90
2013,07,14,03,22,12.90
2013,07,14,03,23,12.80
2013,07,14,03,24,12.80
2013,07,14,03,25,12.80
2013,07,14,03,26,12.80
2013,07,14,03,27,12.70
2013,07,14,03,28,12.70
2013,07,14,03,29,12.70
2013,07,14,03,30,12.60
2013,07,14,03,31,12.60
2013,07,14,03,32,12.60
2013,07,14,03,33,12.60
2013,07,14,03,34,12.50
2013,07,14,03,35,12.50
2013,07,14,03,36,12.40
2013,07,14,03,37,12.40
2013,07,14,03,38,12.40
2013,07,14,03,39,12.40
2013,07,14,03,40,12.40
2013,07,14,03,41,12.30
2013,07,14,03,42,12.30
2013,07,14,03,43,12.30
2013,07,14,03,44,12.30
2013,07,14,03,45,12.30
2013,07,14,03,46,12.30
2013,07,14,03,47,12.20
2013,07,14,03,48,12.20
2013,07,14,03,49,12.20
2013,07,14,03,50,12.20
2013,07,14,03,51,12.20
2013,07,14,03,52,12.20
2013,07,14,03,53,12.10
2013,07,14,03,54,12.10
2013,07,14,03,55,12.10
2013,07,14,03,56,12.10
2013,07,14,03,57,12.10
2013,07,14,03,58,12.10
2013,07,14,03,59,12.00
2013,07,14,04,00,12.00
2013,07,14,04,01,12.00
2013,07,14,04,02,12.00
2013,07,14,04,03,12.00
2013,07,14,04,04,11.90
2013,07,14,04,05,11.90
2013,07,14,04,06,11.90
2013,07,14,04,07,11.90
2013,07,14,04,08,11.90
2013,07,14,04,09,11.90
2013,07,14,04,10,11.80
2013,07,14,04,11,11.80
2013,07,14,04,12,11.80
2013,07,14,04,13,11.80
2013,07,14,04,14,11.80
2013,07,14,04,15,11.80
2013,07,14,04,16,11.80
2013,07,14,04,17,11.80
2013,07,14,04,18,11.80
2013,07,14,04,19,11.80
2013,07,14,04,20,11.80
2013,07,14,04,21,11.80
2013,07,14,04,22,11.80
2013,07,14,04,23,11.80
2013,07,14,04,24,11.80
2013,07,14,04,25,11.80
2013,07,14,04,26,11.70
2013,07,14,04,27,11.70
2013,07,14,04,28,11.80
2013,07,14,04,29,11.80
2013,07,14,04,30,11.70
2013,07,14,04,31,11.70
2013,07,14,04,32,11.70
2013,07,14,04,33,11.70
2013,07,14,04,34,11.70
2013,07,14,04,35,11.70
2013,07,14,04,36,11.60
2013,07,14,04,37,11.60
2013,07,14,04,38,11.60
2013,07,14,04,39,11.60
2013,07,14,04,40,11.60
2013,07,14,04,41,11.60
2013,07,14,04,42,11.60
2013,07,14,04,43,11.60
2013,07,14,04,44,11.60
2013,07,14,04,45,11.50
2013,07,14,04,46,11.50
2013,07,14,04,47,11.50
2013,07,14,04,48,11.50
2013,07,14,04,49,11.50
2013,07,14,04,50,11.50
2013,07,14,04,51,11.50
2013,07,14,04,52,11.50
2013,07,14,04,53,11.50
2013,07,14,04,54,11.50
2013,07,14,04,55,11.50
2013,07,14,04,56,11.50
2013,07,14,04,57,11.50
2013,07,14,04,58,11.50
2013,07,14,04,59,11.50
2013,07,14,05,00,11.50
2013,07,14,05,01,11.60
2013,07,14,05,02,11.60
2013,07,14,05,03,11.50
2013,07,14,05,04,11.60
2013,07,14,05,05,11.60
2013,07,14,05,06,11.60
2013,07,14,05,07,11.60
2013,07,14,05,08,11.60
2013,07,14,05,09,11.70
2013,07,14,05,10,11.70
2013,07,14,05,11,11.70
2013,07,14,05,12,11.80
2013,07,14,05,13,11.80
2013,07,14,05,14,11.90
2013,07,14,05,15,11.90
2013,07,14,05,16,11.90
2013,07,14,05,17,11.90
2013,07,14,05,18,11.90
2013,07,14,05,19,11.90
2013,07,14,05,20,11.90
2013,07,14,05,21,11.90
2013,07,14,05,22,11.80
2013,07,14,05,23,11.80
2013,07,14,05,24,11.80
2013,07,14,05,25,11.80
2013,07,14,05,26,11.80
2013,07,14,05,27,11.70
2013,07,14,05,28,11.70
2013,07,14,05,29,11.70
2013,07,14,05,30,11.70
2013,07,14,05,31,11.70
2013,07,14,05,32,11.70
2013,07,14,05,33,11.70
2013,07,14,05,34,11.70
2013,07,14,05,35,11.60
2013,07,14,05,36,11.60
2013,07,14,05,37,11.60
2013,07,14,05,38,11.60
2013,07,14,05,39,11.60
2013,07,14,05,40,11.60
2013,07,14,05,41,11.60
2013,07,14,05,42,11.60
2013,07,14,05,43,11.60
2013,07,14,05,44,11.60
2013,07,14,05,45,11.50
2013,07,14,05,46,11.50
2013,07,14,05,47,11.50
2013,07,14,05,48,11.40
2013,07,14,05,49,11.40
2013,07,14,05,50,11.30
2013,07,14,05,51,11.30
2013,07,14,05,52,11.30
2013,07,14,05,53,11.30
2013,07,14,05,54,11.30
2013,07,14,05,55,11.30
2013,07,14,05,56,11.30
2013,07,14,05,57,11.30
2013,07,14,05,58,11.30
2013,07,14,05,59,11.30
2013,07,14,06,00,11.30
2013,07,14,06,01,11.30
2013,07,14,06,02,11.30
2013,07,14,06,03,11.30
2013,07,14,06,04,11.40
2013,07,14,06,05,11.40
2013,07,14,06,06,11.40
2013,07,14,06,07,11.40
2013,07,14,06,08,11.50
2013,07,14,06,09,11.50
2013,07,14,06,10,11.50
2013,07,14,06,11,11.60
2013,07,14,06,12,11.60
2013,07,14,06,13,11.60
2013,07,14,06,14,11.70
2013,07,14,06,15,11.70
2013,07,14,06,16,11.70
2013,07,14,06,17,11.70
2013,07,14,06,18,11.80
2013,07,14,06,19,11.90
2013,07,14,06,20,12.00
2013,07,14,06,21,12.00
2013,07,14,06,22,12.10
2013,07,14,06,23,12.20
2013,07,14,06,24,12.30
2013,07,14,06,25,12.40
2013,07,14,06,26,12.40
2013,07,14,06,27,12.50
2013,07,14,06,28,12.60
2013,07,14,06,29,12.60
2013,07,14,06,30,12.70
2013,07,14,06,31,12.80
2013,07,14,06,32,12.80
2013,07,14,06,33,12.90
2013,07,14,06,34,12.90
2013,07,14,06,35,13.00
2013,07,14,06,36,13.10
2013,07,14,06,37,13.10
2013,07,14,06,38,13.20
2013,07,14,06,39,13.20
2013,07,14,06,40,13.30
2013,07,14,06,41,13.40
2013,07,14,06,42,13.50
2013,07,14,06,43,13.60
2013,07,14,06,44,13.70
2013,07,14,06,45,13.80
2013,07,14,06,46,14.00
2013,07,14,06,47,14.10
2013,07,14,06,48,14.20
2013,07,14,06,49,14.30
2013,07,14,06,50,14.40
2013,07,14,06,51,14.50
2013,07,14,06,52,14.70
2013,07,14,06,53,14.80
2013,07,14,06,54,14.90
2013,07,14,06,55,15.00
2013,07,14,06,56,15.00
2013,07,14,06,57,15.20
2013,07,14,06,58,15.30
2013,07,14,06,59,15.40
2013,07,14,07,00,15.50
2013,07,14,07,01,15.50
2013,07,14,07,02,15.60
2013,07,14,07,03,15.70
2013,07,14,07,04,15.80
2013,07,14,07,05,15.80
2013,07,14,07,06,15.90
2013,07,14,07,07,15.90
2013,07,14,07,08,15.90
2013,07,14,07,09,16.00
2013,07,14,07,10,16.00
2013,07,14,07,11,16.10
2013,07,14,07,12,16.20
2013,07,14,07,13,16.20
2013,07,14,07,14,16.30
2013,07,14,07,15,16.30
2013,07,14,07,16,16.30
2013,07,14,07,17,16.40
2013,07,14,07,18,16.40
2013,07,14,07,19,16.50
2013,07,14,07,20,16.50
2013,07,14,07,21,16.60
2013,07,14,07,22,16.60
2013,07,14,07,23,16.60
2013,07,14,07,24,16.70
2013,07,14,07,25,16.70
2013,07,14,07,26,16.80
2013,07,14,07,27,16.80
2013,07,14,07,28,16.80
2013,07,14,07,29,16.90
2013,07,14,07,30,17.00
2013,07,14,07,31,17.00
2013,07,14,07,32,17.10
2013,07,14,07,33,17.10
2013,07,14,07,34,17.10
2013,07,14,07,35,17.20
2013,07,14,07,36,17.20
2013,07,14,07,37,17.30
2013,07,14,07,38,17.30
2013,07,14,07,39,17.30
2013,07,14,07,40,17.40
2013,07,14,07,41,17.50
2013,07,14,07,42,17.50
2013,07,14,07,43,17.60
2013,07,14,07,44,17.70
2013,07,14,07,45,17.80
2013,07,14,07,46,17.80
2013,07,14,07,47,17.90
2013,07,14,07,48,18.00
2013,07,14,07,49,18.00
2013,07,14,07,50,18.10
2013,07,14,07,51,18.20
2013,07,14,07,52,18.20
2013,07,14,07,53,18.30
2013,07,14,07,54,18.30
2013,07,14,07,55,18.30
2013,07,14,07,56,18.30
2013,07,14,07,57,18.30
2013,07,14,07,58,18.20
2013,07,14,07,59,18.20
2013,07,14,08,00,18.20
2013,07,14,08,01,18.20
2013,07,14,08,02,18.20
2013,07,14,08,03,18.30
2013,07,14,08,04,18.30
2013,07,14,08,05,18.30
2013,07,14,08,06,18.40
2013,07,14,08,07,18.40
2013,07,14,08,08,18.50
2013,07,14,08,09,18.60
2013,07,14,08,10,18.70
2013,07,14,08,11,18.70
2013,07,14,08,12,18.80
2013,07,14,08,13,18.80
2013,07,14,08,14,18.80
2013,07,14,08,15,18.80
2013,07,14,08,16,18.80
2013,07,14,08,17,18.70
2013,07,14,08,18,18.70
2013,07,14,08,19,18.70
2013,07,14,08,20,18.60
2013,07,14,08,21,18.60
2013,07,14,08,22,18.60
2013,07,14,08,23,18.60
2013,07,14,08,24,18.60
2013,07,14,08,25,18.60
2013,07,14,08,26,18.60
2013,07,14,08,27,18.70
2013,07,14,08,28,18.70
2013,07,14,08,29,18.80
2013,07,14,08,30,18.90
2013,07,14,08,31,19.00
2013,07,14,08,32,19.10
2013,07,14,08,33,19.30
2013,07,14,08,34,19.40
2013,07,14,08,35,19.50
2013,07,14,08,36,19.60
2013,07,14,08,37,19.70
2013,07,14,08,38,19.70
2013,07,14,08,39,19.70
2013,07,14,08,40,19.80
2013,07,14,08,41,19.80
2013,07,14,08,42,19.80
2013,07,14,08,43,19.70
2013,07,14,08,44,19.60
2013,07,14,08,45,19.60
2013,07,14,08,46,19.50
2013,07,14,08,47,19.40
2013,07,14,08,48,19.30
2013,07,14,08,49,19.30
2013,07,14,08,50,19.30
2013,07,14,08,51,19.30
2013,07,14,08,52,19.30
2013,07,14,08,53,19.30
2013,07,14,08,54,19.30
2013,07,14,08,55,19.40
2013,07,14,08,56,19.40
2013,07,14,08,57,19.50
2013,07,14,08,58,19.60
2013,07,14,08,59,19.60
2013,07,14,09,00,19.60
2013,07,14,09,01,19.60
2013,07,14,09,02,19.60
2013,07,14,09,03,19.60
2013,07,14,09,04,19.60
2013,07,14,09,05,19.60
2013,07,14,09,06,19.60
2013,07,14,09,07,19.60
2013,07,14,09,08,19.60
2013,07,14,09,09,19.60
2013,07,14,09,10,19.50
2013,07,14,09,11,19.50
2013,07,14,09,12,19.60
2013,07,14,09,13,19.60
2013,07,14,09,14,19.60
2013,07,14,09,15,19.50
2013,07,14,09,16,19.50
2013,07,14,09,17,19.40
2013,07,14,09,18,19.40
2013,07,14,09,19,19.40
2013,07,14,09,20,19.40
2013,07,14,09,21,19.30
2013,07,14,09,22,19.40
2013,07,14,09,23,19.30
2013,07,14,09,24,19.40
2013,07,14,09,25,19.40
2013,07,14,09,26,19.40
2013,07,14,09,27,19.40
2013,07,14,09,28,19.30
2013,07,14,09,29,19.30
2013,07,14,09,30,19.30
2013,07,14,09,31,19.30
2013,07,14,09,32,19.30
2013,07,14,09,33,19.30
2013,07,14,09,34,19.30
2013,07,14,09,35,19.30
2013,07,14,09,36,19.30
2013,07,14,09,37,19.30
2013,07,14,09,38,19.40
2013,07,14,09,39,19.40
2013,07,14,09,40,19.40
2013,07,14,09,41,19.40
2013,07,14,09,42,19.40
2013,07,14,09,43,19.40
2013,07,14,09,44,19.30
2013,07,14,09,45,19.30
2013,07,14,09,46,19.30
2013,07,14,09,47,19.20
2013,07,14,09,48,19.20
2013,07,14,09,49,19.20
2013,07,14,09,50,19.10
2013,07,14,09,51,19.20
2013,07,14,09,52,19.20
2013,07,14,09,53,19.30
2013,07,14,09,54,19.30
2013,07,14,09,55,19.40
2013,07,14,09,56,19.40
2013,07,14,09,57,19.50
2013,07,14,09,58,19.70
2013,07,14,09,59,19.80
2013,07,14,10,00,19.80
2013,07,14,10,01,19.70
2013,07,14,10,02,19.60
2013,07,14,10,03,19.60
2013,07,14,10,04,19.60
2013,07,14,10,05,19.70
2013,07,14,10,06,19.60
2013,07,14,10,07,19.60
2013,07,14,10,08,19.60
2013,07,14,10,09,19.60
2013,07,14,10,10,19.50
2013,07,14,10,11,19.60
2013,07,14,10,12,19.60
2013,07,14,10,13,19.70
2013,07,14,10,14,19.80
2013,07,14,10,15,19.90
2013,07,14,10,16,20.00
2013,07,14,10,17,20.10
2013,07,14,10,18,20.20
2013,07,14,10,19,20.20
2013,07,14,10,20,20.20
2013,07,14,10,21,20.30
2013,07,14,10,22,20.30
2013,07,14,10,23,20.40
2013,07,14,10,24,20.40
2013,07,14,10,25,20.30
2013,07,14,10,26,20.30
2013,07,14,10,27,20.30
2013,07,14,10,28,20.30
2013,07,14,10,29,20.30
2013,07,14,10,30,20.30
2013,07,14,10,31,20.40
2013,07,14,10,32,20.40
2013,07,14,10,33,20.50
2013,07,14,10,34,20.50
2013,07,14,10,35,20.50
2013,07,14,10,36,20.50
2013,07,14,10,37,20.40
2013,07,14,10,38,20.50
2013,07,14,10,39,20.60
2013,07,14,10,40,20.60
2013,07,14,10,41,20.70
2013,07,14,10,42,20.60
2013,07,14,10,43,20.60
2013,07,14,10,44,20.60
2013,07,14,10,45,20.50
2013,07,14,10,46,20.50
2013,07,14,10,47,20.50
2013,07,14,10,48,20.50
2013,07,14,10,49,20.60
2013,07,14,10,50,20.70
2013,07,14,10,51,20.80
2013,07,14,10,52,20.90
2013,07,14,10,53,21.00
2013,07,14,10,54,21.10
2013,07,14,10,55,21.20
2013,07,14,10,56,21.20
2013,07,14,10,57,21.20
2013,07,14,10,58,21.20
2013,07,14,10,59,21.20
2013,07,14,11,00,21.20
2013,07,14,11,01,21.20
2013,07,14,11,02,21.20
2013,07,14,11,03,21.20
2013,07,14,11,04,21.10
2013,07,14,11,05,21.10
2013,07,14,11,06,21.20
2013,07,14,11,07,21.20
2013,07,14,11,08,21.10
2013,07,14,11,09,21.10
2013,07,14,11,10,21.10
2013,07,14,11,11,21.10
2013,07,14,11,12,21.10
2013,07,14,11,13,21.20
2013,07,14,11,14,21.20
2013,07,14,11,15,21.20
2013,07,14,11,16,21.10
2013,07,14,11,17,21.10
2013,07,14,11,18,21.10
2013,07,14,11,19,21.20
2013,07,14,11,20,21.20
2013,07,14,11,21,21.10
2013,07,14,11,22,21.10
2013,07,14,11,23,21.10
2013,07,14,11,24,21.20
2013,07,14,11,25,21.20
2013,07,14,11,26,21.20
2013,07,14,11,27,21.20
2013,07,14,11,28,21.30
2013,07,14,11,29,21.30
2013,07,14,11,30,21.40
2013,07,14,11,31,21.40
2013,07,14,11,32,21.40
2013,07,14,11,33,21.40
2013,07,14,11,34,21.40
2013,07,14,11,35,21.50
2013,07,14,11,36,21.60
2013,07,14,11,37,21.80
2013,07,14,11,38,21.80
2013,07,14,11,39,21.80
2013,07,14,11,40,21.80
2013,07,14,11,41,21.80
2013,07,14,11,42,21.80
2013,07,14,11,43,21.80
2013,07,14,11,44,21.80
2013,07,14,11,45,21.90
2013,07,14,11,46,21.90
2013,07,14,11,47,22.00
2013,07,14,11,48,22.00
2013,07,14,11,49,21.90
2013,07,14,11,50,21.90
2013,07,14,11,51,21.80
2013,07,14,11,52,21.70
2013,07,14,11,53,21.70
2013,07,14,11,54,21.80
2013,07,14,11,55,21.80
2013,07,14,11,56,21.80
2013,07,14,11,57,21.80
2013,07,14,11,58,21.90
2013,07,14,11,59,22.00
2013,07,14,12,00,21.90
2013,07,14,12,01,21.70
2013,07,14,12,02,21.60
2013,07,14,12,03,21.50
2013,07,14,12,04,21.50
2013,07,14,12,05,21.50
2013,07,14,12,06,21.60
2013,07,14,12,07,21.70
2013,07,14,12,08,21.80
2013,07,14,12,09,21.80
2013,07,14,12,10,21.80
2013,07,14,12,11,21.90
2013,07,14,12,12,21.90
2013,07,14,12,13,21.90
2013,07,14,12,14,22.00
2013,07,14,12,15,22.10
2013,07,14,12,16,22.10
2013,07,14,12,17,22.20
2013,07,14,12,18,22.30
2013,07,14,12,19,22.30
2013,07,14,12,20,22.40
2013,07,14,12,21,22.40
2013,07,14,12,22,22.50
2013,07,14,12,23,22.50
2013,07,14,12,24,22.60
2013,07,14,12,25,22.70
2013,07,14,12,26,22.80
2013,07,14,12,27,23.00
2013,07,14,12,28,23.10
2013,07,14,12,29,23.10
2013,07,14,12,30,23.00
2013,07,14,12,31,23.00
2013,07,14,12,32,23.00
2013,07,14,12,33,23.10
2013,07,14,12,34,23.20
2013,07,14,12,35,23.20
2013,07,14,12,36,23.30
2013,07,14,12,37,23.20
2013,07,14,12,38,23.20
2013,07,14,12,39,23.10
2013,07,14,12,40,23.00
2013,07,14,12,41,22.90
2013,07,14,12,42,23.00
2013,07,14,12,43,23.00
2013,07,14,12,44,22.90
2013,07,14,12,45,22.90
2013,07,14,12,46,23.00
2013,07,14,12,47,23.00
2013,07,14,12,48,23.00
2013,07,14,12,49,23.00
2013,07,14,12,50,22.90
2013,07,14,12,51,22.70
2013,07,14,12,52,22.80
2013,07,14,12,53,22.80
2013,07,14,12,54,22.80
2013,07,14,12,55,22.90
2013,07,14,12,56,23.00
2013,07,14,12,57,23.00
2013,07,14,12,58,23.10
2013,07,14,12,59,23.20
2013,07,14,13,00,23.10
2013,07,14,13,01,23.10
2013,07,14,13,02,23.00
2013,07,14,13,03,22.90
2013,07,14,13,04,22.80
2013,07,14,13,05,22.80
2013,07,14,13,06,22.90
2013,07,14,13,07,22.70
2013,07,14,13,08,22.50
2013,07,14,13,09,22.40
2013,07,14,13,10,22.30
2013,07,14,13,11,22.40
2013,07,14,13,12,22.60
2013,07,14,13,13,22.70
2013,07,14,13,14,22.70
2013,07,14,13,15,22.70
2013,07,14,13,16,22.70
2013,07,14,13,17,22.70
2013,07,14,13,18,22.80
2013,07,14,13,19,22.80
2013,07,14,13,20,22.80
2013,07,14,13,21,22.80
2013,07,14,13,22,22.90
2013,07,14,13,23,22.90
2013,07,14,13,24,22.80
2013,07,14,13,25,22.80
2013,07,14,13,26,22.80
2013,07,14,13,27,22.80
2013,07,14,13,28,22.70
2013,07,14,13,29,22.70
2013,07,14,13,30,22.70
2013,07,14,13,31,22.70
2013,07,14,13,32,22.70
2013,07,14,13,33,22.80
2013,07,14,13,34,22.80
2013,07,14,13,35,23.00
2013,07,14,13,36,23.10
2013,07,14,13,37,23.20
2013,07,14,13,38,23.10
2013,07,14,13,39,23.10
2013,07,14,13,40,23.10
2013,07,14,13,41,23.00
2013,07,14,13,42,23.00
2013,07,14,13,43,23.00
2013,07,14,13,44,23.00
2013,07,14,13,45,23.00
2013,07,14,13,46,23.00
2013,07,14,13,47,22.90
2013,07,14,13,48,23.00
2013,07,14,13,49,23.10
2013,07,14,13,50,23.20
2013,07,14,13,51,23.40
2013,07,14,13,52,23.50
2013,07,14,13,53,23.70
2013,07,14,13,54,23.80
2013,07,14,13,55,23.80
2013,07,14,13,56,23.90
2013,07,14,13,57,24.00
2013,07,14,13,58,24.10
2013,07,14,13,59,24.20
2013,07,14,14,00,24.20
2013,07,14,14,01,24.20
2013,07,14,14,02,24.10
2013,07,14,14,03,24.10
2013,07,14,14,04,24.10
2013,07,14,14,05,24.00
2013,07,14,14,06,23.90
2013,07,14,14,07,23.90
2013,07,14,14,08,23.90
2013,07,14,14,09,23.90
2013,07,14,14,10,24.00
2013,07,14,14,11,24.00
2013,07,14,14,12,24.10
2013,07,14,14,13,24.10
2013,07,14,14,14,24.20
2013,07,14,14,15,24.30
2013,07,14,14,16,24.30
2013,07,14,14,17,24.30
2013,07,14,14,18,24.30
2013,07,14,14,19,24.30
2013,07,14,14,20,24.30
2013,07,14,14,21,24.30
2013,07,14,14,22,24.30
2013,07,14,14,23,24.30
2013,07,14,14,24,24.40
2013,07,14,14,25,24.40
2013,07,14,14,26,24.40
2013,07,14,14,27,24.40
2013,07,14,14,28,24.40
2013,07,14,14,29,24.30
2013,07,14,14,30,24.30
2013,07,14,14,31,24.30
2013,07,14,14,32,24.50
2013,07,14,14,33,24.60
2013,07,14,14,34,24.60
2013,07,14,14,35,24.70
2013,07,14,14,36,24.60
2013,07,14,14,37,24.60
2013,07,14,14,38,24.60
2013,07,14,14,39,24.60
2013,07,14,14,40,24.60
2013,07,14,14,41,24.60
2013,07,14,14,42,24.70
2013,07,14,14,43,24.80
2013,07,14,14,44,24.90
2013,07,14,14,45,24.80
2013,07,14,14,46,24.80
2013,07,14,14,47,24.60
2013,07,14,14,48,24.60
2013,07,14,14,49,24.50
2013,07,14,14,50,24.30
2013,07,14,14,51,24.20
2013,07,14,14,52,24.30
2013,07,14,14,53,24.30
2013,07,14,14,54,24.30
2013,07,14,14,55,24.30
2013,07,14,14,56,24.20
2013,07,14,14,57,24.20
2013,07,14,14,58,24.20
2013,07,14,14,59,24.20
2013,07,14,15,00,24.20
2013,07,14,15,01,24.20
2013,07,14,15,02,24.20
2013,07,14,15,03,24.10
2013,07,14,15,04,24.10
2013,07,14,15,05,24.10
2013,07,14,15,06,24.10
2013,07,14,15,07,24.20
2013,07,14,15,08,24.20
2013,07,14,15,09,24.30
2013,07,14,15,10,24.40
2013,07,14,15,11,24.40
2013,07,14,15,12,24.40
2013,07,14,15,13,24.50
2013,07,14,15,14,24.50
2013,07,14,15,15,24.60
2013,07,14,15,16,24.60
2013,07,14,15,17,24.60
2013,07,14,15,18,24.70
2013,07,14,15,19,24.80
2013,07,14,15,20,24.90
2013,07,14,15,21,25.10
2013,07,14,15,22,25.10
2013,07,14,15,23,25.20
2013,07,14,15,24,25.30
2013,07,14,15,25,25.30
2013,07,14,15,26,25.40
2013,07,14,15,27,25.50
2013,07,14,15,28,25.60
2013,07,14,15,29,25.60
2013,07,14,15,30,25.60
2013,07,14,15,31,25.50
2013,07,14,15,32,25.40
2013,07,14,15,33,25.30
2013,07,14,15,34,25.30
2013,07,14,15,35,25.30
2013,07,14,15,36,25.30
2013,07,14,15,37,25.30
2013,07,14,15,38,25.30
2013,07,14,15,39,25.30
2013,07,14,15,40,25.20
2013,07,14,15,41,25.20
2013,07,14,15,42,25.20
2013,07,14,15,43,25.20
2013,07,14,15,44,25.20
2013,07,14,15,45,25.10
2013,07,14,15,46,25.10
2013,07,14,15,47,25.10
2013,07,14,15,48,25.10
2013,07,14,15,49,25.20
2013,07,14,15,50,25.30
2013,07,14,15,51,25.40
2013,07,14,15,52,25.50
2013,07,14,15,53,25.60
2013,07,14,15,54,25.70
2013,07,14,15,55,25.80
2013,07,14,15,56,25.80
2013,07,14,15,57,25.80
2013,07,14,15,58,25.80
2013,07,14,15,59,25.80
2013,07,14,16,00,25.90
2013,07,14,16,01,25.90
2013,07,14,16,02,25.90
2013,07,14,16,03,25.90
2013,07,14,16,04,25.90
2013,07,14,16,05,25.90
2013,07,14,16,06,25.90
2013,07,14,16,07,25.90
2013,07,14,16,08,25.90
2013,07,14,16,09,25.80
2013,07,14,16,10,25.70
2013,07,14,16,11,25.70
2013,07,14,16,12,25.70
2013,07,14,16,13,25.70
2013,07,14,16,14,25.70
2013,07,14,16,15,25.60
2013,07,14,16,16,25.50
2013,07,14,16,17,25.50
2013,07,14,16,18,25.40
2013,07,14,16,19,25.30
2013,07,14,16,20,25.30
2013,07,14,16,21,25.10
2013,07,14,16,22,25.10
2013,07,14,16,23,25.00
2013,07,14,16,24,25.00
2013,07,14,16,25,25.00
2013,07,14,16,26,25.00
2013,07,14,16,27,25.00
2013,07,14,16,28,25.10
2013,07,14,16,29,25.10
2013,07,14,16,30,25.20
2013,07,14,16,31,25.10
2013,07,14,16,32,25.10
2013,07,14,16,33,25.10
2013,07,14,16,34,25.10
2013,07,14,16,35,25.00
2013,07,14,16,36,25.00
2013,07,14,16,37,24.90
2013,07,14,16,38,24.60
2013,07,14,16,39,24.30
2013,07,14,16,40,24.00
2013,07,14,16,41,23.70
2013,07,14,16,42,23.50
2013,07,14,16,43,23.20
2013,07,14,16,44,23.00
2013,07,14,16,45,22.90
2013,07,14,16,46,22.80
2013,07,14,16,47,22.70
2013,07,14,16,48,22.70
2013,07,14,16,49,22.70
2013,07,14,16,50,22.70
2013,07,14,16,51,22.70
2013,07,14,16,52,22.80
2013,07,14,16,53,22.80
2013,07,14,16,54,22.70
2013,07,14,16,55,22.70
2013,07,14,16,56,22.70
2013,07,14,16,57,22.70
2013,07,14,16,58,22.70
2013,07,14,16,59,22.70
2013,07,14,17,00,22.60
2013,07,14,17,01,22.70
2013,07,14,17,02,22.70
2013,07,14,17,03,22.70
2013,07,14,17,04,22.80
2013,07,14,17,05,22.80
2013,07,14,17,06,22.70
2013,07,14,17,07,22.70
2013,07,14,17,08,22.70
2013,07,14,17,09,22.60
2013,07,14,17,10,22.60
2013,07,14,17,11,22.50
2013,07,14,17,12,22.40
2013,07,14,17,13,22.40
2013,07,14,17,14,22.30
2013,07,14,17,15,22.20
2013,07,14,17,16,22.20
2013,07,14,17,17,22.10
2013,07,14,17,18,22.00
2013,07,14,17,19,22.00
2013,07,14,17,20,22.00
2013,07,14,17,21,21.90
2013,07,14,17,22,21.90